Location: Icefog Observatory
(64.9000°N, 147.4000°W)
Time: 21:32:33
(UTC-08:00)

Envisat - Visible Passes

Search period start: 25 September 2022 00:00
Search period end: 05 October 2022 00:00
Orbit: 764 x 765 km, 98.2° (Epoch: 25 September)

Date Brightness Start Highest point End Pass type
(mag) Time Alt. Az. Time Alt. Az. Time Alt. Az.
25 Sep 5.9 04:16:59 10° NE 04:19:00 12° ENE 04:21:02 10° E visible
25 Sep 4.4 05:54:37 10° NNE 05:59:28 41° E 06:04:16 10° SSE visible
26 Sep 5.2 05:17:49 10° NNE 05:22:07 26° E 05:26:23 10° SE visible
26 Sep 3.1 06:56:40 10° NNE 07:01:49 89° ESE 07:06:55 10° SSW visible
27 Sep 5.7 04:41:19 10° NE 04:44:36 17° E 04:47:52 10° ESE visible
27 Sep 3.7 06:19:41 10° NNE 06:24:44 57° ESE 06:29:45 10° S visible
28 Sep 6.1 04:06:04 10° ENE 04:06:54 10° ENE 04:07:45 10° E visible
28 Sep 4.6 05:42:47 10° NNE 05:47:30 36° E 05:52:11 10° SSE visible
29 Sep 5.4 05:06:04 10° NNE 05:10:06 23° E 05:14:07 10° SE visible
29 Sep 3.2 06:44:48 10° NNE 06:49:56 78° ESE 06:55:02 10° SSW visible
30 Sep 5.8 04:29:43 10° NE 04:32:32 15° ENE 04:35:20 10° ESE visible
30 Sep 4.0 06:07:50 10° NNE 06:12:49 49° E 06:17:45 10° S visible
01 Oct 4.9 05:30:59 10° NNE 05:35:32 31° E 05:40:03 10° SSE visible
01 Oct 3.0 07:09:58 10° NNE 07:15:04 79° WNW 07:20:10 10° SSW visible
02 Oct 5.5 04:54:20 10° NE 04:58:05 20° E 05:01:48 10° SE visible
02 Oct 3.4 06:32:56 10° NNE 06:38:03 68° ESE 06:43:07 10° S visible
03 Oct 5.9 04:18:16 10° NE 04:20:27 13° ENE 04:22:39 10° E visible
03 Oct 4.3 05:56:01 10° NNE 06:00:52 43° E 06:05:43 10° S visible
04 Oct 5.1 05:19:12 10° NNE 05:23:32 27° E 05:27:52 10° SSE visible
04 Oct 3.0 06:58:04 10° NNE 07:03:13 89° WNW 07:08:19 10° SSW visible
